Location: Playden
(50.9500°N, 0.7333°E)
Time: 00:06:59
(UTC+00:00)

Daily predictions for brighter satellites

Satellite Brightness Start Highest point End
(mag) Time Altitude Azimuth Time Altitude Azimuth Time Altitude Azimuth
Cosmos 1943 Rocket 4.4 03:12:50 20° ENE 03:12:50 20° ENE 03:14:46 10° NE
CENTAUR R/B 3.2 03:44:23 51° ENE 03:44:23 51° ENE 03:50:01 10° NE
Cosmos 2278 Rocket 4.4 03:51:47 16° NNE 03:51:47 16° NNE 03:52:59 10° NNE
NOSS 3-2 (A) 4.0 04:04:16 52° NE 04:04:16 52° NE 04:09:20 10° NE
NOSS 3-2 (C) 3.6 04:12:49 67° E 04:12:49 67° E 04:18:50 10° NE
Meteor 2-3 Rocket 4.3 04:20:25 49° NNE 04:20:25 49° NNE 04:24:35 10° NNE
BREEZE-M DEB (TANK) 4.3 04:21:03 35° SSE 04:21:03 35° SSE 04:28:06 10° SE
Cosmos 968 Rocket 4.2 04:27:18 46° NE 04:27:18 46° NE 04:30:54 10° NNE
Cosmos 2297 Rocket 4.3 04:25:42 14° N 04:28:06 18° NNE 04:31:54 10° ENE
Cosmos 2098 Rocket 4.1 04:32:19 24° SSE 04:34:42 50° E 04:39:55 10° NNE
Cosmos 2344 3.4 04:34:44 64° WNW 04:35:37 69° NW 04:43:48 10° NE
Cosmos 2369 Rocket 2.4 04:34:16 49° S 04:35:37 65° ESE 04:41:12 10° NE
USA 238 DEB 3.4 04:39:34 71° W 04:40:15 79° NW 04:47:15 10° NE
USA 238 3.5 04:39:38 71° WSW 04:40:21 80° NW 04:47:21 10° NE
SL-19 R/B 4.2 04:34:58 10° SSE 04:40:32 86° ENE 04:41:27 64° NNW
Cosmos 2279 Rocket 4.2 04:34:36 10° N 04:40:49 68° ENE 04:46:58 10° SSE
Cosmos 1656 Rocket 4.2 04:37:55 21° S 04:41:25 53° ESE 04:46:44 10° NE
COSMO-SKYMED 1 3.1 04:38:45 10° SSE 04:42:51 57° E 04:42:51 57° E
H-2A R/B 4.4 04:39:51 10° NNE 04:46:53 10° SSE 04:46:54 10° SSE
USA 215 3.2 04:38:43 10° ESE 04:45:16 83° NNE 04:46:50 56° NW
Cosmos 1943 Rocket 2.6 04:54:24 45° NNW 04:54:24 45° NNW 04:58:51 10° NNE
CZ-2C R/B 2.7 04:49:11 10° SSE 04:54:38 79° ENE 04:57:37 27° N
Kosmos-917 4.3 04:57:03 60° NE 04:57:03 60° NE 05:01:35 10° NE
Cosmos 1634 Rocket 3.9 04:58:14 46° NW 04:59:58 62° W 05:06:04 10° S
Gblst 52 Del rocket 4.4 04:59:59 57° W 05:01:22 89° NNW 05:08:14 10° E
Cosmos 2227 Rocket 4.2 05:00:33 12° N 05:04:13 21° NE 05:08:27 10° E
Cosmos 1862 3.5 05:07:19 61° NNE 05:07:19 61° NNE 05:10:41 10° NNE
SKYMED 3 4.4 05:02:46 10° SSE 05:07:07 84° WSW 05:07:16 82° NW
Cosmos 1515 Rocket 4.1 05:06:34 21° N 05:09:19 58° ENE 05:13:35 10° SSE
Landsat 5 3.6 05:06:23 10° SSE 05:10:53 83° ENE 05:12:33 39° N
SJ 16-02 3.4 05:09:24 10° SSE 05:13:09 28° E 05:16:54 10° NE
Tsikada Rocket 4.2 05:16:30 43° W 05:17:05 44° WNW 05:23:07 10° N
BREEZE-M DEB (TANK) 2.8 05:16:52 67° SSW 05:17:09 72° S 05:23:52 10° E
Meteor 2-8 Rocket 4.3 05:16:42 10° NNW 05:22:52 78° W 05:28:59 10° S
COSMOS 2487 3.7 05:23:41 26° NNE 05:24:56 36° ENE 05:28:04 10° SE
Cosmos 2297 4.4 05:26:27 34° NW 05:26:27 34° NW 05:31:38 10° NNE
CZ-4C R/B 2.9 05:23:45 10° SSE 05:26:27 64° SSE 05:26:27 64° SSE
SJ-12 3.8 05:25:27 10° N 05:29:34 67° WNW 05:33:41 10° SSW
SKYMED 2 3.7 05:26:54 10° S 05:31:07 50° W 05:31:27 48° W
CZ-2C R/B 4.1 05:26:45 10° NNE 05:31:25 44° E 05:36:17 10° S
MOS 1-B Rocket 4.2 05:26:00 10° S 05:31:45 42° W 05:33:51 31° NW
Cosmos 2180 Rocket 4.4 05:26:52 10° NNW 05:33:01 69° W 05:39:05 10° S
Cosmos 2278 Rocket 4.0 05:33:39 15° NNW 05:33:39 15° NNW 05:36:21 10° N
Cosmos 783 Rocket 4.4 05:31:02 32° NW 05:33:22 64° WSW 05:38:30 10° S
CENTAUR R/B 3.1 05:31:36 33° WNW 05:34:00 46° NNW 05:41:19 10° NE
FALCON 9 DEB 3.2 05:37:32 49° NNE 05:37:32 49° NNE 05:40:04 10° E
CZ-4B R/B 4.1 05:36:01 10° NNE 05:39:23 38° E 05:42:45 10° SSE
FALCON 9 DEB 3.1 05:40:00 52° NNE 05:40:00 52° NNE 05:42:37 10° E
FALCON 9 DEB 3.0 05:40:11 53° NNE 05:40:11 53° NNE 05:42:48 10° E
Cosmos 1503 Rocket 3.9 05:34:45 10° SSW 05:40:02 75° WNW 05:45:26 10° NNE
Meteor 1-27 Rocket 3.7 05:34:35 10° NNW 05:40:16 90° W 05:46:02 10° S
ATLAS 5 CENTAUR R/B 2.9 05:37:02 10° S 05:40:36 37° ESE 05:44:36 10° NE
Cosmos 1151 Rocket 4.4 05:42:26 22° SW 05:42:26 22° SW 05:44:29 10° SSW
H-2A R/B 2.6 05:40:41 10° SSE 05:44:54 61° ENE 05:49:17 10° N
Cosmos 1486 Rocket 4.3 05:44:08 22° WSW 05:47:12 43° WNW 05:52:15 10° NNE
Cosmos 1777 Rocket 4.4 05:42:17 10° S 05:47:27 65° ESE 05:52:39 10° NNE
USA 32 4.5 05:42:27 10° N 05:47:42 64° E 05:52:53 10° SSE
Cosmos 773 Rocket 4.1 05:45:01 25° NW 05:47:53 55° WSW 05:52:55 10° S
Lacrosse 4 Rocket 3.6 05:46:32 11° NNW 05:49:41 21° NE 05:53:07 10° E
Cosmos 1515 4.0 05:48:52 10° N 05:52:40 66° ENE 05:56:27 10° SSE
NOSS 3-2 (A) 4.3 05:51:40 25° WNW 05:54:23 35° NNW 06:00:49 10° NE
SL-27 R/B 2.9 05:54:53 37° W 05:55:21 39° WSW 05:58:40 10° S
Cosmos 1340 Rocket 3.1 05:51:59 10° S 05:55:55 68° E 05:59:55 10° NNE
Okean 3 Rocket 4.0 05:52:16 10° SW 05:56:32 39° WNW 06:00:50 10° N
Cosmos 1766 Rocket 4.1 05:55:32 10° SW 05:59:27 32° WNW 06:03:22 10° N
Envisat 3.3 05:57:28 10° N 06:02:15 42° WNW 06:07:00 10° SW
NOSS 3-2 (C) 4.0 06:00:16 22° W 06:03:41 41° NNW 06:10:15 10° NE
FALCON 9 DEB 2.9 06:03:14 39° NW 06:04:00 55° N 06:06:50 10° E
ATLAS 3B R/B 3.3 05:57:41 10° SSW 06:04:05 58° SE 06:10:48 10° NE
DMSP B5D2-2 4.0 05:59:13 10° S 06:04:24 66° WSW 06:09:36 10° NNW
Cosmos 158 Rocket 3.9 06:04:32 12° NNW 06:09:15 76° WSW 06:14:29 10° SSE
Cosmos 1939 Rocket 3.1 06:09:18 10° NNE 06:13:15 69° ESE 06:17:06 10° S
Cosmos 2297 Rocket 2.7 06:07:45 10° NNW 06:13:22 60° NE 06:18:58 10° SE
FALCON 9 DEB 3.3 06:13:36 26° WNW 06:15:18 58° N 06:18:40 10° E
Cosmos 2098 Rocket 4.4 06:12:46 11° WSW 06:16:11 24° WNW 06:20:37 10° N
H-2A R/B 3.9 06:14:25 10° NNW 06:21:57 - SW 06:17:13 21° WNW
Cosmos 1174 3.2 06:14:29 10° SSW 06:17:27 78° SE 06:20:42 10° NE
Meteor 1-31 Rocket 3.6 06:14:50 10° N 06:18:13 29° WNW 06:21:36 10° SW
COSMO-SKYMED 1 4.0 06:16:30 10° SW 06:19:33 18° W 06:20:04 18° W
Cosmos 2369 Rocket 3.0 06:16:09 14° W 06:20:06 30° NW 06:25:02 10° NNE
Cosmos 1607 3.9 06:17:00 14° NW 06:22:33 77° SW 06:28:41 10° SSE
Cosmos 1656 Rocket 4.3 06:20:23 10° WSW 06:25:16 33° NW 06:30:14 10° NNE
CZ-4B R/B 1.3 06:22:43 10° SSE 06:26:01 83° ENE 06:29:17 10° NNW
Okean 1 3.2 06:24:23 10° N 06:28:22 88° W 06:32:19 10° S
USA 215 3.9 06:22:35 10° SSE 06:28:41 41° SW 06:34:11 13° WNW
Cosmos 1408 Rocket 4.2 06:28:01 10° SW 06:31:52 31° WNW 06:35:45 10° N
USA 238 DEB 4.4 06:27:02 14° W 06:32:12 35° NNW 06:38:39 10° NE
USA 238 4.4 06:27:06 14° W 06:32:17 35° NNW 06:38:45 10° NE
CZ-2D R/B 4.1 06:28:55 10° NNE 06:32:39 53° E 06:36:22 10° S
Cosmos 2263 Rocket 4.0 06:30:46 10° NNW 06:35:04 22° NE 06:39:22 10° E
CZ-2C R/B 4.0 06:31:50 10° SW 06:35:32 18° W 06:39:07 10° NW
Meteor 1-18 Rocket 4.4 06:29:45 10° NNW 06:35:40 86° ENE 06:41:26 10° SSE
NOAA 12 4.0 06:32:04 10° N 06:37:19 68° WNW 06:42:31 10° SSW
Cosmos 1943 Rocket 3.8 06:35:57 13° WNW 06:38:27 16° NNW 06:41:57 10° N
FengYun 1-2 T 4.2 06:33:15 10° NNE 06:38:45 82° WNW 06:44:14 10° SSW
Nadezhda 4 Rocket 4.2 06:33:10 10° SW 06:39:05 47° WNW 06:45:07 10° N
Cosmos 2228 Rocket 3.4 06:36:35 10° NNW 06:40:54 48° W 06:45:15 10° SSW
Cosmos 1743 Rocket 3.9 06:37:24 10° SSW 06:41:35 43° WNW 06:45:47 10° N
Cosmos 724 4.4 06:35:59 10° NW 06:41:56 79° NE 06:47:45 10° SE
Alouette 2 Rocket 4.1 06:41:24 10° NNW 06:44:42 28° W 06:47:49 10° SSW
CORIOLIS 4.3 06:39:20 10° NNE 06:44:49 85° ESE 06:50:17 10° SSW
Meteor 2-4 Rocket 4.0 06:40:04 10° N 06:46:03 78° ENE 06:51:54 10° SSE
Cosmos 1378 4.2 06:44:30 10° N 06:48:06 46° ENE 06:51:43 10° SSE
Cosmos 2227 Rocket 2.4 06:43:33 10° NNW 06:49:15 77° ENE 06:54:54 10° SE
SJ 16-02 1.8 06:47:29 10° SW 06:51:35 38° WNW 06:55:43 10° N
Cosmos 2344 4.4 06:44:46 10° WNW 06:51:41 37° N 07:00:04 10° ENE
ADEOS 4.2 06:47:01 10° N 06:51:41 34° WNW 06:56:20 10° SW
Cosmos 1666 Rocket 3.9 06:48:18 10° S 06:52:46 75° E 06:57:16 10° NNE
Cosmos 1428 Rocket 4.5 06:50:24 10° SSW 06:56:28 63° WNW 07:02:34 10° N
Cosmos 1092 Rocket 4.1 06:50:31 10° SSW 06:56:40 56° WNW 07:02:55 10° N
Meteor 1-20 Rocket 4.4 06:52:27 10° SSW 06:57:56 54° WNW 07:03:34 10° N
Meteor 1-19 Rocket 4.4 06:53:09 10° NNW 06:58:34 50° W 07:03:49 10° SSW
Cosmos 1602 4.2 06:55:30 10° SW 06:59:05 38° WNW 07:02:42 10° N
COSMOS 2487 4.0 06:56:59 10° NW 06:59:20 18° W 07:01:40 10° SW
ARGOS 4.3 06:55:25 10° NNE 07:00:39 50° E 07:05:50 10° S
CZ-4B DEB 4.2 06:55:55 10° NNE 07:01:25 88° WNW 07:06:53 10° SSW
BREEZE M DEB (TANK) 3.1 06:59:02 10° W 07:01:34 30° SSW 07:03:26 10° SE
Cosmos 1656 4.2 06:56:20 10° SSW 07:01:41 63° ESE 07:07:05 10° NE
Cosmos 1689 Rocket 3.2 07:00:20 10° SE 07:02:46 36° ENE 07:05:13 10° N
CZ-4 R/B 3.8 07:01:22 10° NE 07:04:37 25° E 07:07:50 10° SSE
Timation 1 Rocket 4.5 07:00:29 10° NW 07:06:24 63° WSW 07:12:15 10° SSE
PSLV R/B 3.8 07:02:42 10° N 07:06:37 65° WNW 07:10:36 10° SSW
AQUARIUS 4.4 07:06:12 10° N 07:10:33 50° WNW 07:14:53 10° SW
CZ-2C R/B 3.7 07:06:59 10° N 07:11:11 30° WNW 07:15:32 10° WSW
SMAP 3.4 07:07:10 10° N 07:11:37 45° WNW 07:16:02 10° SW
